Flag for U.S.A. Weather past 2 weeks in Lewiston, Idaho, U.S.A.

Now
54 °F

Passing clouds.


Feels Like: 52 °F
Forecast: 46 / 67 °F
Wind: 8 mph from Southeast

Location: Lewiston-Nez Perce County Airport

Current Time: Sep 30, 2014 at 11:15:33 PM

Latest Report: Sep 30, 2014 at 9:56 PM


Visibility: 10 mi

Pressure: 30.01 "Hg

Humidity: 67%

Dew point: 43 °F

Location of LewistonLocation

Historic Weather in Lewiston — Graph

°F

Lewiston temperature yesterday

Maximum temperature yesterday: 69 °F (at 12:56 AM)
Minimum temperature yesterday: 59 °F (at 11:56 PM)
Average temperature yesterday: 66 °F

Past Weeks' High & Low Weather Summary

 TemperatureHumidityPressure
High93 °F (Sep 16, 3:56 PM)96% (Sep 30, 2:56 AM)30.12 "Hg (Sep 30, 2:56 AM)
Low53 °F (Sep 28, 4:56 AM)13% (Sep 16, 3:56 PM)29.58 "Hg (Sep 18, 12:56 AM)
Average69 °F47%29.87 "Hg
* Reported Sep 15 9:56 PM — Sep 30 9:56 PM, Lewiston, Weather by CustomWeather, © 2014

Note: Actual official high and low records may vary slightly from our data, if they occured in-between our weather recording intervals... More about our weather records

Advertising

Lewiston weather history for previous 24 hours

 ConditionsComfort  
Time TempWeatherWind HumidityBarometerVisibility
9:56 PM
Sep 30
54 °FPassing clouds.8 mph67%30.01 "Hg10 mi
8:56 PM59 °FPassing clouds.13 mph49%30.00 "Hg10 mi
7:56 PM61 °FClear.7 mph42%29.97 "Hg10 mi
6:56 PM63 °FOvercast.13 mph38%29.95 "Hg10 mi
5:56 PM64 °FMostly cloudy.17 mph37%29.93 "Hg10 mi
4:56 PM65 °FMore clouds than sun.14 mph37%29.94 "Hg10 mi
3:56 PM64 °FMostly cloudy.13 mph38%29.94 "Hg10 mi
2:56 PM63 °FLight rain. Overcast.13 mph40%29.94 "Hg10 mi
1:56 PM65 °FMostly cloudy.12 mph37%29.94 "Hg10 mi
12:56 PM66 °FMostly cloudy.12 mph36%29.95 "Hg10 mi
11:56 AM62 °FMostly cloudy.17 mph43%29.96 "Hg10 mi
10:56 AM64 °FScattered clouds.18 mph40%29.94 "Hg10 mi
9:56 AM62 °FSunny.17 mph46%29.94 "Hg10 mi
8:56 AM58 °FOvercast.10 mph54%29.94 "Hg10 mi
7:56 AM55 °FPassing clouds.7 mph64%29.93 "Hg10 mi
6:56 AM55 °FOvercast.8 mph59%29.91 "Hg10 mi
5:56 AM55 °FPassing clouds.12 mph62%29.88 "Hg10 mi
4:56 AM56 °FPassing clouds.7 mph70%29.87 "Hg10 mi
3:56 AM58 °FPartly cloudy.6 mph78%29.85 "Hg10 mi
2:56 AM57 °FLight rain. Mostly cloudy.5 mph96%29.84 "Hg10 mi
1:56 AM58 °FLight rain. Mostly cloudy.No wind93%29.83 "Hg10 mi
12:56 AM58 °FLight rain. Overcast.5 mph93%29.83 "Hg7 mi
11:56 PM
Sep 29
59 °FRain. Overcast.5 mph87%29.82 "Hg7 mi
Weather by CustomWeather, © 2014

See weather overviewHow to use our weather pages